Time,TemperatureF,DewpointF,PressureIn,WindDirection,WindDirectionDegrees,WindSpeedMPH,WindSpeedGustMPH,Humidity,HourlyPrecipIn,Conditions,Clouds,dailyrainin,SoftwareType,DateUTC
2013-09-18 00:00:00,65.5,62.2,30.13,SSE,156,0.0,0.0,89,0.00,,,0.00,Wunderground v.1.13,2013-09-18 04:00:00,
2013-09-18 00:10:00,65.2,62.2,30.14,SSE,156,0.0,0.0,90,0.00,,,0.00,Wunderground v.1.13,2013-09-18 04:10:00,
2013-09-18 00:20:00,65.1,62.4,30.14,SSE,156,0.0,0.0,91,0.00,,,0.00,Wunderground v.1.13,2013-09-18 04:20:00,
2013-09-18 00:30:00,64.7,62.3,30.14,SSE,156,0.0,0.0,92,0.00,,,0.00,Wunderground v.1.13,2013-09-18 04:30:00,
2013-09-18 00:40:00,64.6,62.5,30.13,SSE,156,0.0,0.0,93,0.00,,,0.00,Wunderground v.1.13,2013-09-18 04:40:00,
2013-09-18 00:50:00,64.4,62.3,30.13,SSE,156,0.0,0.0,93,0.00,,,0.00,Wunderground v.1.13,2013-09-18 04:50:00,
2013-09-18 01:00:00,64.4,62.6,30.13,SSE,156,0.0,0.0,94,0.00,,,0.00,Wunderground v.1.13,2013-09-18 05:00:00,
2013-09-18 01:10:00,64.6,62.8,30.13,SSE,156,0.0,0.0,94,0.00,,,0.00,Wunderground v.1.13,2013-09-18 05:10:00,
2013-09-18 01:20:00,64.4,62.6,30.13,SSE,156,0.0,0.0,94,0.00,,,0.00,Wunderground v.1.13,2013-09-18 05:20:00,
2013-09-18 01:30:00,64.4,62.6,30.14,SSE,156,0.0,0.0,94,0.00,,,0.00,Wunderground v.1.13,2013-09-18 05:30:00,
2013-09-18 01:40:00,64.2,62.4,30.13,SSE,156,0.0,0.0,94,0.00,,,0.00,Wunderground v.1.13,2013-09-18 05:40:00,
2013-09-18 01:50:00,63.9,62.1,30.13,SSE,156,0.0,0.0,94,0.00,,,0.00,Wunderground v.1.13,2013-09-18 05:50:00,
2013-09-18 02:00:00,63.6,61.8,30.13,SSE,156,0.0,0.0,94,0.00,,,0.00,Wunderground v.1.13,2013-09-18 06:00:00,
2013-09-18 02:10:00,63.3,61.5,30.14,SSE,156,0.0,0.0,94,0.00,,,0.00,Wunderground v.1.13,2013-09-18 06:10:00,
2013-09-18 02:20:00,63.1,61.6,30.14,SSE,156,0.0,0.0,95,0.00,,,0.00,Wunderground v.1.13,2013-09-18 06:20:00,
2013-09-18 02:30:00,62.8,61.0,30.14,SSE,156,0.0,0.0,94,0.00,,,0.00,Wunderground v.1.13,2013-09-18 06:30:00,
2013-09-18 02:40:00,62.6,60.8,30.13,SSE,156,0.0,0.0,94,0.00,,,0.00,Wunderground v.1.13,2013-09-18 06:40:00,
2013-09-18 02:50:00,62.5,60.7,30.13,SSE,156,0.0,0.0,94,0.00,,,0.00,Wunderground v.1.13,2013-09-18 06:50:00,
2013-09-18 03:00:00,62.5,60.4,30.13,SSE,156,0.0,0.0,93,0.00,,,0.00,Wunderground v.1.13,2013-09-18 07:00:00,
2013-09-18 03:10:00,62.3,59.9,30.13,SSE,156,0.0,0.0,92,0.00,,,0.00,Wunderground v.1.13,2013-09-18 07:10:00,
2013-09-18 03:20:00,62.2,59.8,30.13,SSE,156,0.0,0.0,92,0.00,,,0.00,Wunderground v.1.13,2013-09-18 07:20:00,
2013-09-18 03:30:00,62.0,59.6,30.13,SSE,156,0.0,0.0,92,0.00,,,0.00,Wunderground v.1.13,2013-09-18 07:30:00,
2013-09-18 03:40:00,61.9,60.2,30.13,SSE,156,0.0,0.0,94,0.00,,,0.00,Wunderground v.1.13,2013-09-18 07:40:00,
2013-09-18 03:50:00,62.0,60.6,30.13,SSE,156,0.0,0.0,95,0.00,,,0.00,Wunderground v.1.13,2013-09-18 07:50:00,
2013-09-18 04:00:00,62.0,60.6,30.13,SSE,156,0.0,0.0,95,0.00,,,0.00,Wunderground v.1.13,2013-09-18 08:00:00,
2013-09-18 04:10:00,62.2,60.8,30.13,SSE,156,0.0,0.0,95,0.00,,,0.00,Wunderground v.1.13,2013-09-18 08:10:00,
2013-09-18 04:20:00,62.2,60.2,30.13,SSE,156,0.0,0.0,93,0.00,,,0.00,Wunderground v.1.13,2013-09-18 08:20:00,
2013-09-18 04:30:00,62.3,60.2,30.13,SSE,156,0.0,0.0,93,0.00,,,0.00,Wunderground v.1.13,2013-09-18 08:30:00,
2013-09-18 04:40:00,62.5,60.4,30.13,SSE,156,0.0,0.0,93,0.00,,,0.00,Wunderground v.1.13,2013-09-18 08:40:00,
2013-09-18 04:50:00,62.6,60.5,30.13,SSE,156,0.0,0.0,93,0.00,,,0.00,Wunderground v.1.13,2013-09-18 08:50:00,
2013-09-18 05:00:00,62.6,60.5,30.13,SSE,156,0.0,0.0,93,0.00,,,0.00,Wunderground v.1.13,2013-09-18 09:00:00,
2013-09-18 05:10:00,62.6,60.5,30.13,SSE,156,0.0,0.0,93,0.00,,,0.00,Wunderground v.1.13,2013-09-18 09:10:00,
2013-09-18 05:20:00,62.8,60.4,30.13,SSE,156,0.0,0.0,92,0.00,,,0.00,Wunderground v.1.13,2013-09-18 09:20:00,
2013-09-18 05:30:00,62.8,60.7,30.13,SSE,156,0.0,0.0,93,0.00,,,0.00,Wunderground v.1.13,2013-09-18 09:30:00,
2013-09-18 05:40:00,62.8,61.0,30.13,SSE,156,0.0,0.0,94,0.00,,,0.00,Wunderground v.1.13,2013-09-18 09:40:00,
2013-09-18 05:50:00,62.8,61.0,30.13,SSE,156,0.0,0.0,94,0.00,,,0.00,Wunderground v.1.13,2013-09-18 09:50:00,
2013-09-18 06:00:00,62.8,61.3,30.13,SSE,156,0.0,0.0,95,0.00,,,0.00,Wunderground v.1.13,2013-09-18 10:00:00,
2013-09-18 06:10:00,62.6,61.1,30.13,SSE,156,0.0,0.0,95,0.00,,,0.00,Wunderground v.1.13,2013-09-18 10:10:00,
2013-09-18 06:20:00,62.6,61.1,30.13,SSE,156,0.0,0.0,95,0.00,,,0.00,Wunderground v.1.13,2013-09-18 10:20:00,
2013-09-18 06:30:00,62.5,61.0,30.14,SSE,156,0.0,0.0,95,0.00,,,0.00,Wunderground v.1.13,2013-09-18 10:30:00,
2013-09-18 06:40:00,62.5,61.3,30.14,SSE,156,0.0,0.0,96,0.00,,,0.00,Wunderground v.1.13,2013-09-18 10:40:00,
2013-09-18 06:50:00,62.5,61.3,30.14,SSE,156,0.0,0.0,96,0.00,,,0.00,Wunderground v.1.13,2013-09-18 10:50:00,
2013-09-18 07:10:00,62.2,61.0,30.15,SSE,156,0.0,0.0,96,0.00,,,0.00,Wunderground v.1.13,2013-09-18 11:10:00,
2013-09-18 07:20:00,62.2,61.3,30.15,SSE,156,0.0,0.0,97,0.00,,,0.00,Wunderground v.1.13,2013-09-18 11:20:00,
2013-09-18 07:30:00,62.0,61.1,30.15,SSE,156,0.0,0.0,97,0.00,,,0.00,Wunderground v.1.13,2013-09-18 11:30:00,
2013-09-18 07:40:00,62.0,61.1,30.16,SSE,156,0.0,0.0,97,0.00,,,0.00,Wunderground v.1.13,2013-09-18 11:40:00,
2013-09-18 07:50:00,62.0,61.4,30.16,SSE,156,0.0,0.0,98,0.00,,,0.00,Wunderground v.1.13,2013-09-18 11:50:00,
2013-09-18 08:00:00,62.2,61.6,30.16,SSE,156,0.0,0.0,98,0.00,,,0.00,Wunderground v.1.13,2013-09-18 12:00:00,
2013-09-18 08:10:00,62.3,61.7,30.16,SSE,156,0.0,0.0,98,0.00,,,0.00,Wunderground v.1.13,2013-09-18 12:10:00,
2013-09-18 08:20:00,62.5,61.9,30.16,SSE,156,0.0,0.0,98,0.00,,,0.00,Wunderground v.1.13,2013-09-18 12:20:00,
2013-09-18 08:30:00,62.8,62.2,30.16,SSE,156,0.0,0.0,98,0.00,,,0.00,Wunderground v.1.13,2013-09-18 12:30:00,
2013-09-18 08:40:00,62.8,61.9,30.17,SSE,156,0.0,0.0,97,0.00,,,0.00,Wunderground v.1.13,2013-09-18 12:40:00,
2013-09-18 08:50:00,63.1,62.2,30.17,SSE,156,0.0,0.0,97,0.00,,,0.00,Wunderground v.1.13,2013-09-18 12:50:00,
2013-09-18 09:00:00,63.4,62.2,30.17,SSE,156,0.0,0.0,96,0.00,,,0.00,Wunderground v.1.13,2013-09-18 13:00:00,
2013-09-18 09:10:00,63.8,61.7,30.17,SSE,156,0.0,0.0,93,0.00,,,0.00,Wunderground v.1.13,2013-09-18 13:10:00,
2013-09-18 09:20:00,64.1,61.7,30.17,SSE,156,0.0,0.0,92,0.00,,,0.00,Wunderground v.1.13,2013-09-18 13:20:00,
2013-09-18 09:30:00,64.2,61.5,30.18,SSE,156,0.0,0.0,91,0.00,,,0.00,Wunderground v.1.13,2013-09-18 13:30:00,
2013-09-18 09:40:00,64.4,61.7,30.19,SSE,156,0.0,0.0,91,0.00,,,0.00,Wunderground v.1.13,2013-09-18 13:40:00,
2013-09-18 09:50:00,64.6,61.9,30.19,SSE,156,0.0,0.0,91,0.00,,,0.00,Wunderground v.1.13,2013-09-18 13:50:00,
2013-09-18 10:00:00,64.9,62.5,30.19,SSE,156,0.0,0.0,92,0.00,,,0.00,Wunderground v.1.13,2013-09-18 14:00:00,
2013-09-18 10:10:00,65.2,62.2,30.19,SSE,156,0.0,0.0,90,0.00,,,0.00,Wunderground v.1.13,2013-09-18 14:10:00,
2013-09-18 10:20:00,65.5,62.5,30.19,SSE,156,0.0,0.0,90,0.00,,,0.00,Wunderground v.1.13,2013-09-18 14:20:00,
2013-09-18 10:30:00,65.9,62.9,30.19,SSE,156,0.0,0.0,90,0.00,,,0.00,Wunderground v.1.13,2013-09-18 14:30:00,
2013-09-18 10:40:00,66.0,61.0,30.19,SSE,156,0.0,0.0,84,0.00,,,0.00,Wunderground v.1.13,2013-09-18 14:40:00,
2013-09-18 10:50:00,66.2,61.2,30.19,SSE,156,0.0,0.0,84,0.00,,,0.00,Wunderground v.1.13,2013-09-18 14:50:00,
2013-09-18 11:00:00,66.7,61.7,30.19,SSE,156,0.0,0.0,84,0.00,,,0.00,Wunderground v.1.13,2013-09-18 15:00:00,
2013-09-18 11:10:00,67.0,61.3,30.19,SSE,156,0.0,0.0,82,0.00,,,0.00,Wunderground v.1.13,2013-09-18 15:10:00,
2013-09-18 11:20:00,67.5,60.8,30.19,SSE,156,0.0,0.0,79,0.00,,,0.00,Wunderground v.1.13,2013-09-18 15:20:00,
2013-09-18 11:30:00,67.8,60.3,30.19,SSE,156,0.0,0.0,77,0.00,,,0.00,Wunderground v.1.13,2013-09-18 15:30:00,
2013-09-18 11:40:00,68.2,60.3,30.19,SSE,156,0.0,0.0,76,0.00,,,0.00,Wunderground v.1.13,2013-09-18 15:40:00,
2013-09-18 11:50:00,68.7,61.2,30.19,SSE,156,0.0,0.0,77,0.00,,,0.00,Wunderground v.1.13,2013-09-18 15:50:00,
2013-09-18 12:00:00,69.0,61.5,30.18,SSE,156,0.0,0.0,77,0.00,,,0.00,Wunderground v.1.13,2013-09-18 16:00:00,
2013-09-18 12:10:00,69.2,61.3,30.18,SSE,156,0.0,0.0,76,0.00,,,0.00,Wunderground v.1.13,2013-09-18 16:10:00,
2013-09-18 12:20:00,69.0,60.7,30.18,SSE,156,0.0,0.0,75,0.00,,,0.00,Wunderground v.1.13,2013-09-18 16:20:00,
2013-09-18 12:30:00,69.0,60.7,30.17,SSE,156,0.0,0.0,75,0.00,,,0.00,Wunderground v.1.13,2013-09-18 16:30:00,
2013-09-18 12:50:00,69.7,61.8,30.17,SSE,156,0.0,0.0,76,0.00,,,0.00,Wunderground v.1.13,2013-09-18 16:50:00,
2013-09-18 13:00:00,70.0,62.1,30.17,SSE,156,0.0,0.0,76,0.00,,,0.00,Wunderground v.1.13,2013-09-18 17:00:00,
2013-09-18 13:10:00,70.7,62.0,30.17,SSE,156,0.0,0.0,74,0.00,,,0.00,Wunderground v.1.13,2013-09-18 17:10:00,
2013-09-18 13:20:00,71.0,62.7,30.17,SSE,156,0.0,0.0,75,0.00,,,0.00,Wunderground v.1.13,2013-09-18 17:20:00,
2013-09-18 13:30:00,70.5,61.0,30.17,SSE,156,0.0,0.0,72,0.00,,,0.00,Wunderground v.1.13,2013-09-18 17:30:00,
2013-09-18 13:40:00,70.3,62.4,30.17,SSE,156,0.0,0.0,76,0.00,,,0.00,Wunderground v.1.13,2013-09-18 17:40:00,
2013-09-18 13:50:00,70.5,62.2,30.17,SSE,156,0.0,0.0,75,0.00,,,0.00,Wunderground v.1.13,2013-09-18 17:50:00,
2013-09-18 14:00:00,70.8,62.1,30.16,SSE,156,0.0,0.0,74,0.00,,,0.00,Wunderground v.1.13,2013-09-18 18:00:00,
2013-09-18 14:10:00,71.2,61.7,30.16,SSE,156,0.0,0.0,72,0.00,,,0.00,Wunderground v.1.13,2013-09-18 18:10:00,
2013-09-18 14:20:00,71.0,61.5,30.16,SSE,156,0.0,0.0,72,0.00,,,0.00,Wunderground v.1.13,2013-09-18 18:20:00,
2013-09-18 14:30:00,70.8,60.5,30.16,SSE,156,0.0,0.0,70,0.00,,,0.00,Wunderground v.1.13,2013-09-18 18:30:00,
2013-09-18 14:40:00,70.8,62.5,30.16,SSE,156,0.0,0.0,75,0.00,,,0.00,Wunderground v.1.13,2013-09-18 18:40:00,
2013-09-18 14:50:00,70.8,62.5,30.16,SSE,156,0.0,0.0,75,0.00,,,0.00,Wunderground v.1.13,2013-09-18 18:50:00,
2013-09-18 15:00:00,70.7,62.0,30.15,SSE,156,0.0,0.0,74,0.00,,,0.00,Wunderground v.1.13,2013-09-18 19:00:00,
2013-09-18 15:10:00,70.7,63.5,30.15,SSE,156,0.0,0.0,78,0.00,,,0.00,Wunderground v.1.13,2013-09-18 19:10:00,
2013-09-18 15:20:00,70.3,63.1,30.15,SSE,156,0.0,0.0,78,0.00,,,0.00,Wunderground v.1.13,2013-09-18 19:20:00,
2013-09-18 15:30:00,69.8,64.4,30.14,SSE,156,0.0,0.0,83,0.00,,,0.01,Wunderground v.1.13,2013-09-18 19:30:00,
2013-09-18 15:40:00,69.5,65.1,30.14,SSE,156,0.0,0.0,86,0.00,,,0.01,Wunderground v.1.13,2013-09-18 19:40:00,
2013-09-18 15:50:00,69.0,65.3,30.14,SSE,156,0.0,0.0,88,0.00,,,0.01,Wunderground v.1.13,2013-09-18 19:50:00,
2013-09-18 16:00:00,68.5,64.8,30.14,SSE,156,0.0,0.0,88,0.00,,,0.01,Wunderground v.1.13,2013-09-18 20:00:00,
2013-09-18 16:10:00,68.0,64.3,30.14,SSE,156,0.0,0.0,88,0.00,,,0.01,Wunderground v.1.13,2013-09-18 20:10:00,
2013-09-18 16:20:00,67.7,64.7,30.14,SSE,156,0.0,0.0,90,0.00,,,0.01,Wunderground v.1.13,2013-09-18 20:20:00,
2013-09-18 16:30:00,67.8,64.1,30.13,SSE,156,0.0,0.0,88,0.00,,,0.01,Wunderground v.1.13,2013-09-18 20:30:00,
2013-09-18 16:40:00,68.0,64.0,30.12,SSE,156,0.0,0.0,87,0.00,,,0.01,Wunderground v.1.13,2013-09-18 20:40:00,
2013-09-18 16:50:00,68.3,64.3,30.12,SSE,156,0.0,0.0,87,0.00,,,0.01,Wunderground v.1.13,2013-09-18 20:50:00,
2013-09-18 17:00:00,68.2,63.5,30.13,SSE,156,0.0,0.0,85,0.00,,,0.01,Wunderground v.1.13,2013-09-18 21:00:00,
2013-09-18 17:10:00,68.3,64.3,30.12,SSE,156,0.0,0.0,87,0.00,,,0.01,Wunderground v.1.13,2013-09-18 21:10:00,
2013-09-18 17:20:00,68.5,64.1,30.12,SSE,156,0.0,0.0,86,0.00,,,0.01,Wunderground v.1.13,2013-09-18 21:20:00,
2013-09-18 17:30:00,68.8,65.1,30.12,SSE,156,0.0,0.0,88,0.00,,,0.01,Wunderground v.1.13,2013-09-18 21:30:00,
2013-09-18 17:40:00,69.0,64.6,30.12,SSE,156,0.0,0.0,86,0.00,,,0.01,Wunderground v.1.13,2013-09-18 21:40:00,
2013-09-18 17:50:00,69.2,65.2,30.12,SSE,156,0.0,0.0,87,0.00,,,0.01,Wunderground v.1.13,2013-09-18 21:50:00,
2013-09-18 18:00:00,69.2,65.2,30.11,SSE,156,0.0,0.0,87,0.00,,,0.01,Wunderground v.1.13,2013-09-18 22:00:00,
2013-09-18 18:10:00,69.2,63.8,30.11,SSE,156,0.0,0.0,83,0.00,,,0.01,Wunderground v.1.13,2013-09-18 22:10:00,
2013-09-18 18:20:00,69.2,64.5,30.11,SSE,156,0.0,0.0,85,0.00,,,0.01,Wunderground v.1.13,2013-09-18 22:20:00,
2013-09-18 18:30:00,69.0,64.3,30.11,SSE,156,0.0,0.0,85,0.00,,,0.01,Wunderground v.1.13,2013-09-18 22:30:00,
2013-09-18 18:40:00,68.8,64.4,30.11,SSE,156,0.0,0.0,86,0.00,,,0.01,Wunderground v.1.13,2013-09-18 22:40:00,
2013-09-18 18:50:00,68.3,64.3,30.11,SSE,156,0.0,0.0,87,0.00,,,0.01,Wunderground v.1.13,2013-09-18 22:50:00,
2013-09-18 19:00:00,68.0,64.3,30.11,SSE,156,0.0,0.0,88,0.00,,,0.01,Wunderground v.1.13,2013-09-18 23:00:00,
2013-09-18 19:10:00,67.7,64.3,30.11,SSE,156,0.0,0.0,89,0.00,,,0.01,Wunderground v.1.13,2013-09-18 23:10:00,
2013-09-18 19:20:00,67.5,64.5,30.11,SSE,156,0.0,0.0,90,0.00,,,0.01,Wunderground v.1.13,2013-09-18 23:20:00,
2013-09-18 19:30:00,67.3,64.3,30.11,SSE,156,0.0,0.0,90,0.00,,,0.01,Wunderground v.1.13,2013-09-18 23:30:00,
2013-09-18 19:40:00,67.2,64.5,30.11,SSE,156,0.0,0.0,91,0.00,,,0.01,Wunderground v.1.13,2013-09-18 23:40:00,
2013-09-18 19:50:00,66.8,64.1,30.11,SSE,156,0.0,0.0,91,0.00,,,0.01,Wunderground v.1.13,2013-09-18 23:50:00,
2013-09-18 20:00:00,66.7,64.3,30.11,SSE,156,0.0,0.0,92,0.00,,,0.01,Wunderground v.1.13,2013-09-19 00:00:00,
2013-09-18 20:10:00,66.7,64.6,30.11,SSE,156,0.0,0.0,93,0.00,,,0.01,Wunderground v.1.13,2013-09-19 00:10:00,
2013-09-18 20:20:00,66.7,64.6,30.11,SSE,156,0.0,0.0,93,0.00,,,0.01,Wunderground v.1.13,2013-09-19 00:20:00,
2013-09-18 20:30:00,66.5,64.4,30.12,SSE,156,0.0,0.0,93,0.00,,,0.01,Wunderground v.1.13,2013-09-19 00:30:00,
2013-09-18 20:40:00,66.3,64.2,30.12,SSE,156,0.0,0.0,93,0.00,,,0.01,Wunderground v.1.13,2013-09-19 00:40:00,
2013-09-18 20:50:00,66.3,64.5,30.12,SSE,156,0.0,0.0,94,0.00,,,0.01,Wunderground v.1.13,2013-09-19 00:50:00,
2013-09-18 21:00:00,66.2,64.4,30.12,SSE,156,0.0,0.0,94,0.00,,,0.01,Wunderground v.1.13,2013-09-19 01:00:00,
2013-09-18 21:20:00,66.0,63.9,30.12,SSE,156,0.0,0.0,93,0.00,,,0.01,Wunderground v.1.13,2013-09-19 01:20:00,
2013-09-18 21:30:00,65.9,63.8,30.13,SSE,156,0.0,0.0,93,0.00,,,0.01,Wunderground v.1.13,2013-09-19 01:30:00,
2013-09-18 21:40:00,65.5,63.4,30.12,SSE,156,0.0,0.0,93,0.00,,,0.01,Wunderground v.1.13,2013-09-19 01:40:00,
2013-09-18 21:50:00,65.4,63.6,30.12,SSE,156,0.0,0.0,94,0.00,,,0.01,Wunderground v.1.13,2013-09-19 01:50:00,
2013-09-18 22:00:00,65.1,63.3,30.13,SSE,156,0.0,0.0,94,0.00,,,0.01,Wunderground v.1.13,2013-09-19 02:00:00,
2013-09-18 22:10:00,64.7,62.6,30.13,SSE,156,0.0,0.0,93,0.00,,,0.01,Wunderground v.1.13,2013-09-19 02:10:00,
2013-09-18 22:20:00,64.6,63.1,30.13,SSE,156,0.0,0.0,95,0.00,,,0.01,Wunderground v.1.13,2013-09-19 02:20:00,
2013-09-18 22:30:00,64.4,63.2,30.13,SSE,156,0.0,0.0,96,0.00,,,0.01,Wunderground v.1.13,2013-09-19 02:30:00,
2013-09-18 22:40:00,64.4,63.2,30.13,SSE,156,0.0,0.0,96,0.00,,,0.01,Wunderground v.1.13,2013-09-19 02:40:00,
2013-09-18 22:50:00,64.4,63.2,30.13,SSE,156,0.0,0.0,96,0.00,,,0.01,Wunderground v.1.13,2013-09-19 02:50:00,
2013-09-18 23:00:00,64.4,63.2,30.13,SSE,156,0.0,0.0,96,0.00,,,0.01,Wunderground v.1.13,2013-09-19 03:00:00,
2013-09-18 23:10:00,64.4,63.5,30.12,SSE,156,0.0,0.0,97,0.00,,,0.01,Wunderground v.1.13,2013-09-19 03:10:00,
2013-09-18 23:20:00,64.6,63.7,30.12,SSE,156,0.0,0.0,97,0.00,,,0.01,Wunderground v.1.13,2013-09-19 03:20:00,
2013-09-18 23:30:00,64.7,63.8,30.13,SSE,156,0.0,0.0,97,0.00,,,0.01,Wunderground v.1.13,2013-09-19 03:30:00,
2013-09-18 23:40:00,64.7,63.8,30.13,SSE,156,0.0,0.0,97,0.00,,,0.01,Wunderground v.1.13,2013-09-19 03:40:00,
2013-09-18 23:50:00,64.7,63.8,30.13,SSE,156,0.0,0.0,97,0.00,,,0.01,Wunderground v.1.13,2013-09-19 03:50:00,